Regional Weather Roundup
Issued by NWS Newport/Morehead, NC

Current Version | Previous Version | Graphics & Text | Print | Product List | Glossary On
Versions: 1 2 3 4 5 6 7 8 9 10 11 12 13 14 15 16 17 18 19 20 21 22 23 24 25 26 27 28 29 30 31 32 33 34 35 36 37 38 39 40 41 42 43 44 45 46 47 48 49 50
000 ASUS42 KMHX 251722 RWRMHX WEATHER ROUNDUP FOR EASTERN NORTH CAROLINA NATIONAL WEATHER SERVICE NEWPORT/MOREHEAD CITY NC 1200 PM EST THU DEC 25 2014 NOTE: "FAIR" INDICATES FEW OR NO CLOUDS BELOW 12,000 FEET WITH NO SIGNIFICANT WEATHER AND/OR OBSTRUCTIONS TO VISIBILITY NCZ015>017-031-032-045>047-102-103-251800- NORTH COAST CITY SKY/WX TMP DP RH WIND PRES REMARKS EDENTON CLOUDY 54 39 57 NW10G18 30.00S ELIZABETH CITY CLOUDY 58 41 53 W14 29.99R KITTY HAWK CLOUDY 53 44 70 W9 29.97R MANTEO CLOUDY 54 45 71 NW9G17 29.99R $$ NCZ045>047-081-094-103-104-251800- CENTRAL COAST CITY SKY/WX TMP DP RH WIND PRES REMARKS FRISCO CLOUDY 55 45 68 NW12G22 29.99R SWANQUARTER N/A 57 N/A N/A NW12G21 29.97S $$ NCZ095-097-098-100-101-251800- SOUTHERN COAST CITY SKY/WX TMP DP RH WIND PRES REMARKS BEAUFORT CLOUDY 58 50 75 NW13 30.03R CEDAR ISLAND N/A 57 N/A N/A W5G13 30.03F JACKSONVILLE CLOUDY 57 47 69 W14 30.03F PINEY ISLAND CLOUDY 59 50 72 W13 30.01R WILMINGTON CLOUDY 56 45 66 W13 30.06F $$ NCZ011>013-027>030-043-044-078>080-089-090>093-098-251800- COASTAL PLAIN CITY SKY/WX TMP DP RH WIND PRES REMARKS AHOSKIE MOSUNNY 55 39 54 NW5 30.01S CLINTON MOSUNNY 58 41 53 NW10 30.06F ELIZABETHTOWN MOSUNNY 56 43 60 W7 30.07F GOLDSBORO MOSUNNY 58 43 57 NW14G24 30.02F GREENVILLE PTSUNNY 57 37 47 NW9G18 30.04F HAVELOCK CLOUDY 58 48 69 W13 30.03F KENANSVILLE PTSUNNY 57 42 55 W10 30.05S KINSTON PTSUNNY 57 39 51 W7 30.04S NEW BERN CLOUDY 60 39 45 W12G21 30.03S RICHLANDS CLOUDY 57 43 58 W7G17 30.04S ROCKY MOUNT SUNNY 57 37 47 W13G21 30.03S WASHINGTON CLOUDY 55 39 54 W7G18 30.02S WHITEVILLE PTSUNNY 55 43 64 SW6 30.08F $$ AMZ130-135-150-152-154-156-158-170-250-252-270-ANZ085-086-088-633-658-670-251800- MARINE OBSERVATIONS STATION/POSITION TIME TEMP WIND PRES WAVE SWELL AIR SEA DIR/SP/G HT/PER HT/PER (UTC) (F) (DEG/KT/KT) (MB) (FT/S) (FT/S) CHESAPEAKE LIGHT 1700 52 300/ 12/ 13 1015.3 64 E VA BEACH 1700 53 53 320/ 14/ 17 1013.4 6/ 8 5/ 8 DUCK 1700 54 50 290/ 15/ 19 1014.4 2 E DUCK 1700 50 N/A 2/ 8 10 NE DUCK 1700 50 N/A 4/ 8 2/11 OREGON INLET 1700 54 54 280/ 16/ 20 1015.0 13E OREGON INLT 1700 51 N/A 5/ 8 2/11 HATTERAS CG 1700 57 57 300/ 14/ 17 1016.0 DIAMOND BUOY 1700 61 1015.1 8/ 8 17 S OCRACOKE NOT AVBL CAPE LOOKOUT 1700 56 280/ 16/ 18 1016.8 BEAUFORT LAB 1700 57 55 290/ 7/ 11 1015.7 30 SE NEW RIVER 1700 56 60 290/ 19/ 23 1017.9 7/ 8 3/ 8 5 SE WRIGHTSVLE NOT AVBL 225 S CAPE HAT 1624 73 73 290/ 23/ 27 1017.8 9/ 8 41 SE CHARLESTON 1700 57 72 290/ 17/ 25 1019.7 5/ 5 2/ 9 $$

USA.gov is the U.S. government's official web portal to all federal, state and local government web resources and services.